Location: Unspecified
(48.2082°N, 0.0000°E)
Time: 22:46:55
(UTC+00:00)

S-56A Canister/Altair - Visible Passes

Search period start: 19 June 2019 00:00
Search period end: 29 June 2019 00:00
Orbit: 633 x 2499 km, 38.9° (Epoch: 18 June)

Date Brightness Start Highest point End Pass type
(mag) Time Alt. Az. Time Alt. Az. Time Alt. Az.
19 Jun 9.1 21:27:09 10° WSW 21:29:58 15° SSW 21:32:09 11° S visible
20 Jun 9.1 20:54:04 10° WSW 20:57:32 18° SSW 21:00:37 10° SSE visible
24 Jun 9.7 20:48:48 10° SW 20:50:01 11° SW 20:51:09 10° SSW visible
